GFSNGP_2pvu_pres_144.txt.gz
Presure
208 209 214 215 210 205 213 221 222 223 239 236 236 250 255 246 252 245 237 216 227 237 223 246 251 247 242 244 244 232 233 234 233 237 240 239 232 244 231 239 241 240 231 234
229 203 187 160 199 168 213 208 211 221 204 184 192 208 218 223 216 232 235 234 232 234 235 236 236 152 240 239 193 193 230 225 228 227 228 227 227 226 225 218 232 228 232 235
201 193 196 184 181 187 190 187 205 201 195 203 206 211 193 202 220 214 211 210 203 208 220 214 218 227 193 210 220 223 191 210 209 214 212 214 210 208 210 226 218 217 229 226
204 198 187 189 216 192 184 191 191 201 198 187 187 193 201 199 209 196 202 211 201 211 208 209 215 208 204 208 204 209 211 211 208 219 222 226 224 214 203 204 222 221 218 232
196 206 211 190 212 186 199 217 183 181 177 177 197 212 187 180 186 186 181 206 204 199 199 221 215 198 193 195 202 202 217 192 196 197 211 204 196 195 213 215 219 218 224 226
177 203 203 201 212 182 210 197 178 192 217 225 191 173 209 195 200 208 224 184 190 184 194 144 146 199 210 195 200 212 203 203 214 202 198 196 192 204 201 193 193 204 200 195
174 189 191 216 184 197 174 207 199 187 196 201 202 201 182 171 187 188 213 213 209 195 195 203 187 192 191 201 201 209 205 196 181 163 163 209 211 208 212 205 208 213 209 203
204 182 155 166 189 224 207 186 189 180 200 209 207 189 191 193 184 199 209 189 191 180 185 195 204 205 204 201 191 180 205 202 200 200 197 201 193 191 201 204 205 197 190 199
177 178 196 214 180 197 180 207 178 167 176 207 207 201 209 208 190 217 212 206 200 190 190 200 185 202 217 219 198 202 195 197 184 199 176 182 203 201 203 211 215 213 216 213
188 197 200 207 198 200 198 152 148 177 195 198 215 179 211 214 215 190 216 183 187 212 178 195 212 189 200 210 212 208 194 198 205 206 191 188 191 192 186 198 188 197 195 196
144 188 196 172 199 202 206 202 190 200 208 220 217 212 181 215 221 196 215 212 208 198 205 214 197 228 210 200 178 189 197 213 218 224 217 201 204 208 208 216 216 201 204 200
207 200 185 191 197 203 209 206 210 212 163 204 224 231 225 232 241 209 225 223 224 218 154 156 197 146 202 176 196 222 188 198 202 188 181 215 219 222 206 208 221 175 210 220
191 195 195 206 130 203 146 91 204 153 131 229 138 237 169 244 243 232 235 227 234 191 133 133 220 218 191 218 197 192 192 208 204 200 210 220 211 209 211 228 209 193 189 183
207 169 210 101 219 106 169 223 146 217 216 126 234 267 188 235 196 125 125 150 183 230 224 230 210 219 228 226 175 219 210 208 216 210 215 209 204 223 215 210 212 229 222 222
224 219 220 209 205 216 228 222 212 231 192 265 227 235 257 177 107 108 167 174 237 231 224 197 234 232 218 233 231 206 225 226 206 224 218 215 178 139 221 208 127 218 218 219
240 237 137 134 245 253 262 222 291 216 271 109 263 266 255 275 280 294 228 242 250 238 241 235 234 232 230 233 216 209 213 214 220 222 227 227 225 218 231 220 213 209 211 219
106 105 115 281 300 378 373 255 282 259 304 119 369 357 344 340 330 280 299 281 255 256 252 244 243 245 232 241 243 230 221 229 139 226 223 224 143 231 224 239 234 226 233 228
243 248 248 265 255 249 249 219 278 354 356 128 143 357 373 361 332 318 300 249 274 260 162 155 246 244 243 239 240 238 233 177 236 235 240 234 192 159 235 245 248 235 260 238
310 254 265 320 342 352 338 351 350 344 346 346 347 348 348 345 358 316 223 259 377 307 138 121 227 258 257 233 239 241 236 226 241 259 187 251 245 242 222 263 217 175 272 262
254 316 264 247 337 332 315 286 300 154 345 335 332 337 333 332 350 341 319 124 162 243 296 290 280 277 275 266 260 129 255 259 267 262 253 292 350 318 234 241 225 216 216 279
279 278 271 296 297 287 352 354 306 352 351 353 348 343 340 124 340 330 326 306 132 132 126 131 375 373 373 353 353 153 320 331 274 356 252 341 299 287 277 262 259 272 192 263
311 314 147 316 365 360 353 351 314 347 346 336 334 340 344 343 203 327 321 326 329 201 205 231 338 336 363 352 357 344 336 320 295 282 270 307 310 336 260 315 304 300 286 279
336 350 367 214 362 350 350 353 352 348 346 349 351 343 329 321 329 340 335 335 336 332 329 324 320 324 335 341 378 353 380 359 359 324 371 330 236 292 289 272 286 266 286 281
315 366 344 333 336 200 337 331 346 337 338 313 343 348 343 331 334 329 327 327 327 330 333 337 332 330 322 315 308 312 300 375 373 346 343 336 335 299 294 348 346 339 323 318
355 347 348 353 326 352 354 351 341 338 343 339 339 352 318 340 335 331 337 330 327 334 338 327 328 318 304 320 320 351 401 348 346 373 361 247 364 340 348 332 345 342 318 291
395 381 372 363 357 351 349 353 356 362 366 376 343 365 360 354 325 343 332 342 339 329 333 324 340 330 322 317 307 306 334 272 347 335 357 358 341 324 341 336 341 315 348 342
399 393 389 382 367 360 381 384 429 424 422 401 377 371 293 378 369 368 338 354 333 324 341 327 322 326 325 319 307 303 340 350 348 342 347 346 372 360 346 330 343 351 320 311

GFSNGP_2pvu_pres_150.txt.gz
Presure
196 214 232 214 209 220 227 221 208 235 223 212 221 225 220 214 210 206 210 213 216 234 216 206 216 217 212 207 214 236 218 207 212 208 215 223 214 218 228 228 213 212 209 217
175 196 194 187 214 205 172 223 212 213 205 206 212 216 210 227 203 214 202 199 206 219 223 209 196 209 204 200 203 213 203 202 202 202 201 208 202 204 216 212 204 210 205 206
177 183 187 218 169 211 196 182 197 191 220 154 209 135 134 133 169 217 179 213 201 209 192 216 213 193 205 197 211 203 219 206 197 201 203 202 207 204 205 198 201 198 199 204
168 174 171 176 172 168 192 178 199 219 200 189 182 192 187 188 201 177 189 196 193 187 182 185 180 216 198 199 197 195 208 213 211 195 203 196 205 198 202 158 210 211 206 199
189 186 196 178 198 210 179 211 171 208 211 181 219 199 204 188 200 212 213 150 211 199 192 182 198 185 187 204 193 191 191 192 214 217 210 210 207 201 199 199 196 198 196 200
173 196 185 169 193 180 201 180 178 176 213 170 201 178 179 208 192 184 201 201 181 191 213 206 207 187 210 188 213 197 184 192 192 185 193 215 212 206 189 192 195 195 203 201
157 202 179 173 192 197 188 182 182 191 198 204 175 199 192 169 174 173 190 197 196 170 172 172 194 187 179 193 188 180 199 184 193 190 188 190 200 203 200 211 212 202 209 208
216 166 164 210 192 149 178 209 173 174 206 207 200 202 159 179 189 201 202 198 207 191 203 175 185 201 203 209 197 200 191 193 206 198 199 205 182 183 194 192 188 196 199 195
155 186 197 159 149 194 199 151 149 181 180 211 211 206 188 206 174 207 201 211 212 208 193 179 206 193 192 199 210 201 189 210 186 213 205 193 209 216 203 202 204 195 196 191
144 198 198 207 192 159 153 173 153 200 203 211 207 201 198 186 189 191 212 161 157 193 211 210 215 214 197 219 176 215 174 205 193 187 180 213 228 204 223 195 193 202 217 215
176 178 185 156 199 188 192 174 172 180 198 152 204 214 194 217 183 177 206 220 202 174 168 179 206 215 217 191 217 179 207 222 206 226 213 210 207 188 165 155 172 173 173 197
159 218 205 207 195 167 197 190 191 170 184 208 220 198 178 201 176 211 225 211 215 226 215 206 203 203 174 172 191 196 196 230 230 210 237 209 177 232 139 215 173 233 208 211
222 222 222 216 218 202 205 213 221 226 203 214 173 217 217 198 94 222 227 225 229 163 222 219 231 236 232 147 226 229 233 234 186 288 279 241 213 253 139 238 220 216 235 244
233 233 232 227 234 211 93 220 203 172 207 235 231 228 225 224 216 218 209 207 203 205 212 227 201 247 141 278 312 319 248 205 239 258 273 288 264 268 262 248 238 232 227 216
256 244 238 236 232 232 230 241 234 192 240 239 243 239 236 224 238 239 233 242 226 214 228 97 198 238 239 258 250 250 257 365 244 246 359 243 252 260 280 273 249 243 235 231
245 259 256 250 244 243 211 239 229 240 227 223 234 243 248 180 137 226 244 246 253 280 284 239 250 263 124 122 331 253 258 369 341 358 357 364 342 258 271 238 241 253 247 245
259 256 294 241 254 258 257 246 240 235 236 224 223 247 265 258 239 251 245 256 248 266 275 247 317 313 351 361 345 325 319 361 351 342 357 263 122 322 291 260 241 285 268 129
313 319 283 301 301 257 245 203 293 104 239 261 272 237 292 329 299 281 258 324 314 304 290 308 317 320 289 120 356 372 357 342 337 349 366 151 121 354 351 339 318 315 279 289
275 279 287 216 87 192 297 94 98 142 255 342 293 274 311 304 300 275 239 318 307 315 290 344 338 331 321 342 340 361 361 356 300 332 329 345 372 366 346 326 342 345 345 319
298 289 244 295 319 191 94 91 229 177 293 317 289 271 329 233 276 302 257 337 330 324 318 306 116 296 150 361 352 341 336 347 348 345 332 326 311 350 384 323 371 345 327 275
294 299 287 284 282 295 289 291 299 298 292 302 307 302 308 305 319 320 323 302 305 166 286 151 369 363 356 355 353 352 348 333 358 348 335 333 339 332 321 332 384 403 316 380
299 299 309 299 300 283 284 294 294 306 309 314 309 314 314 312 306 295 286 285 295 298 308 306 298 345 354 356 350 346 348 345 342 331 345 338 343 333 329 327 324 323 334 356
307 310 301 299 296 291 301 298 288 292 288 285 304 299 291 305 313 302 294 300 339 336 342 353 347 336 336 352 340 343 354 358 339 350 350 327 337 333 329 331 332 329 321 314
324 332 196 82 339 344 350 337 341 349 346 357 364 377 381 406 430 416 394 374 362 364 360 350 341 338 338 336 334 336 330 353 353 283 356 335 340 328 321 318 320 325 331 332
468 471 458 439 434 445 474 475 465 458 457 457 455 446 432 430 437 422 404 398 385 364 354 348 343 345 347 342 343 335 334 334 347 341 347 347 339 337 325 323 340 320 314 308
398 401 402 403 404 401 404 431 415 428 437 440 433 424 419 416 415 418 414 405 399 389 375 362 356 356 351 351 353 350 348 344 350 349 332 341 345 340 335 327 330 323 319 317
362 374 377 377 375 373 378 379 376 375 373 364 359 397 402 399 400 404 399 399 398 390 385 376 362 152 361 361 365 349 375 362 354 377 347 328 335 321 327 328 325 319 317 312

GFSNGP_2pvu_pres_153.txt.gz
Presure
191 199 194 189 205 222 214 232 204 210 210 223 222 227 216 214 209 216 220 222 232 210 208 233 218 205 208 218 223 218 218 223 220 216 208 209 205 209 213 216 214 218 215 204
191 212 172 192 200 202 191 204 206 204 213 209 210 207 220 224 200 201 197 223 209 224 209 218 215 221 223 219 203 211 211 191 184 218 220 213 208 209 204 212 207 221 196 218
191 180 174 176 199 175 201 171 196 181 189 201 207 219 208 155 202 134 132 191 203 209 209 203 195 192 205 206 197 213 217 200 195 194 199 194 215 217 209 206 206 203 202 203
186 179 193 186 181 168 166 186 181 173 182 197 200 208 204 187 206 191 188 194 198 212 210 195 206 197 200 208 202 196 199 201 193 202 204 200 196 192 195 210 210 212 205 200
162 190 157 209 193 193 213 219 192 187 184 181 185 220 197 211 206 190 190 191 209 217 197 191 209 213 191 190 193 193 194 195 202 209 188 209 212 204 193 191 180 192 194 194
170 194 186 207 184 183 172 158 160 189 202 187 206 173 180 172 183 192 209 183 186 190 177 180 196 172 186 185 184 183 206 205 181 187 182 208 190 190 212 204 213 186 194 202
168 190 177 174 144 154 186 190 153 159 192 164 203 181 200 188 192 204 205 196 164 161 188 187 194 199 203 180 183 178 200 188 184 174 184 198 188 209 199 193 207 208 200 210
158 212 179 169 173 164 163 187 137 190 158 182 200 192 160 161 197 153 181 195 214 212 172 173 209 182 180 177 178 174 204 201 189 187 201 195 211 177 185 199 190 182 191 202
181 141 143 168 152 191 168 178 158 179 188 148 182 213 213 215 160 199 211 213 203 179 216 208 212 210 182 181 208 207 170 173 210 213 213 200 194 186 214 203 199 223 219 195
211 206 161 232 160 159 224 170 219 166 167 169 166 179 155 158 203 194 182 174 173 176 200 207 213 177 206 214 221 214 201 218 205 207 186 213 188 190 178 194 205 191 198 224
215 122 215 195 159 214 244 236 161 165 175 189 211 218 183 188 188 198 208 192 197 197 211 205 191 217 213 187 193 188 164 225 214 209 199 199 208 226 225 228 226 227 232 216
221 169 218 97 251 253 242 230 246 209 181 233 220 224 220 204 211 224 225 162 168 196 164 190 195 183 222 216 205 203 219 225 218 215 219 216 220 198 174 236 187 208 232 246
112 248 266 258 112 247 252 249 248 253 230 243 239 234 183 158 158 229 178 228 150 209 188 229 227 235 232 224 235 223 212 218 209 210 191 207 242 262 243 246 250 252 250 260
219 249 261 275 255 209 168 247 249 214 208 227 167 154 242 240 227 200 153 191 220 230 226 239 236 220 212 244 240 230 229 214 245 231 279 274 234 239 246 246 262 331 275 256
286 252 132 181 258 277 257 253 255 261 246 250 251 172 247 255 255 251 254 255 249 238 249 250 205 205 202 191 262 251 219 236 296 125 313 240 260 352 318 384 315 354 249 290
249 252 260 315 300 301 266 252 254 298 252 293 265 260 265 260 257 253 250 250 260 253 251 247 237 250 249 248 267 273 302 293 260 310 296 247 306 310 282 336 319 123 377 359
91 239 283 275 258 304 305 277 276 301 300 305 260 258 255 258 251 249 248 278 263 263 261 245 238 338 299 281 308 304 300 321 281 300 288 347 332 317 286 358 355 135 120 345
232 88 96 293 290 284 290 315 292 279 277 247 117 174 230 286 321 326 301 374 338 362 335 310 288 354 307 246 315 314 328 346 338 331 321 314 376 371 371 330 352 344 340 234
281 280 291 288 285 288 290 287 195 148 85 95 96 91 104 291 159 302 321 294 297 287 315 304 298 310 315 329 299 328 123 309 311 295 285 335 363 352 351 357 349 343 329 329
307 299 285 286 295 293 292 290 290 293 291 290 282 192 103 303 303 298 295 299 313 319 323 316 311 306 296 278 304 270 302 289 305 328 325 369 368 357 346 340 339 336 338 331
303 301 303 307 105 292 297 292 301 307 308 310 301 276 308 307 315 306 307 298 286 300 305 293 295 306 310 307 315 115 320 327 306 314 307 357 337 354 345 335 350 366 342 330
309 307 303 302 295 299 300 304 302 299 302 297 288 302 305 305 295 296 302 300 304 303 301 296 322 316 316 305 314 304 295 305 360 359 350 347 356 348 358 348 337 331 342 337
380 350 341 336 333 344 320 322 324 316 330 326 331 319 331 345 339 339 323 321 335 346 360 354 352 371 377 372 361 354 351 351 345 358 353 341 337 345 332 361 337 352 328 323
394 401 415 423 435 449 445 449 464 463 491 472 473 468 451 441 445 472 467 467 462 454 450 441 432 420 402 391 376 368 352 350 353 342 343 343 349 340 334 327 330 356 353 327
360 363 366 368 371 374 374 373 377 386 397 405 406 404 402 407 454 455 426 450 453 445 436 431 427 418 400 393 380 368 361 354 347 348 342 357 343 347 347 335 352 332 363 352
354 355 354 353 355 356 358 363 365 357 359 371 376 376 378 376 378 379 378 410 413 424 420 413 412 410 403 396 380 373 363 354 352 349 350 351 348 358 344 353 347 337 330 376
429 425 411 430 427 428 432 437 445 444 442 386 374 363 363 360 357 358 360 397 414 414 407 401 397 397 396 391 396 382 375 364 359 356 360 353 347 349 337 347 376 354 332 370

GFSNGP_2pvu_pres_156.txt.gz
Presure
187 189 194 192 193 198 201 197 200 203 227 198 220 215 220 210 225 225 221 219 228 213 220 230 230 217 203 198 201 206 202 209 202 210 209 210 218 162 223 219 205 204 212 210
194 177 174 196 195 198 192 204 198 203 199 202 208 216 222 216 215 216 216 218 204 223 198 191 220 218 219 218 222 222 221 202 208 220 216 205 204 203 205 204 203 202 220 212
149 190 198 192 179 181 176 191 182 181 196 178 183 183 190 188 177 202 206 212 212 197 223 210 179 201 205 213 203 199 199 202 192 193 205 203 199 195 205 204 203 206 205 191
148 144 173 159 178 172 181 177 199 190 223 215 196 197 180 192 192 190 179 199 194 205 193 188 198 222 203 211 196 214 204 210 199 209 205 197 195 197 181 199 196 209 199 191
177 132 157 186 169 207 172 145 178 202 148 196 190 181 201 182 195 195 190 202 182 184 186 192 191 205 181 194 209 175 209 188 195 200 200 191 184 207 204 204 196 195 196 208
158 185 180 166 163 179 145 193 161 199 174 140 208 203 196 202 155 180 216 176 181 152 191 202 197 188 190 160 169 181 174 171 175 191 198 204 186 181 183 187 182 180 181 200
174 185 146 144 154 157 159 180 176 152 201 163 174 177 200 182 216 182 178 182 150 167 163 170 183 179 215 196 188 195 195 194 183 169 170 199 187 177 193 187 172 180 197 193
174 214 198 216 205 199 200 168 185 171 156 151 168 181 206 143 168 194 165 210 190 199 190 204 183 184 208 192 160 169 194 170 167 166 186 185 217 179 174 187 189 204 194 188
140 140 179 219 217 208 178 224 158 149 179 228 202 184 147 223 158 182 181 175 167 166 168 192 192 159 165 232 220 222 202 199 193 213 163 232 210 229 205 198 180 168 201 182
202 215 253 232 238 253 209 230 211 188 212 222 207 159 212 181 209 222 177 208 151 188 211 210 183 213 138 183 202 194 195 202 197 174 203 208 200 169 185 190 218 167 202 194
237 251 217 190 234 242 254 171 248 238 248 191 230 209 182 169 193 212 166 198 227 223 202 202 167 210 202 211 216 163 204 186 211 229 204 196 216 196 197 206 213 195 207 206
255 252 300 293 278 271 273 285 268 246 256 258 172 255 248 246 245 219 252 229 244 231 227 175 189 228 207 167 205 226 208 196 234 187 214 190 227 217 223 191 235 204 224 226
219 219 295 286 280 211 252 271 247 293 257 241 259 249 248 266 261 255 249 251 253 260 251 254 207 136 244 191 237 238 192 192 231 218 167 247 238 229 227 240 239 233 249 251
259 102 254 268 248 334 254 256 328 282 263 250 269 261 255 254 263 260 246 249 257 259 250 249 244 248 248 253 252 253 256 252 252 195 251 249 261 266 243 263 231 247 287 250
257 195 245 234 292 316 325 289 292 253 248 310 294 265 252 265 271 263 262 273 263 260 260 256 263 260 262 262 265 258 249 261 272 265 260 263 240 249 251 271 246 258 303 326
286 270 246 287 267 143 224 290 227 289 287 236 303 284 287 327 305 250 300 313 302 220 256 252 304 123 312 316 260 258 262 248 269 348 344 334 271 248 353 289 279 301 356 350
294 277 244 92 98 86 97 94 286 281 284 285 280 286 289 299 298 289 288 306 310 115 102 314 296 346 334 322 282 292 288 292 272 261 259 317 319 375 359 301 331 329 320 316
145 209 86 89 155 141 282 280 275 296 294 291 258 143 270 289 286 204 95 120 101 99 291 306 305 294 305 306 317 308 287 298 321 290 323 274 314 277 289 315 308 308 296 287
209 299 297 294 296 297 295 296 295 293 288 289 292 296 204 209 272 101 298 101 110 113 288 294 305 298 325 330 325 308 298 302 308 304 313 319 287 337 321 289 285 291 337 360
307 303 302 306 303 307 304 303 303 305 304 306 305 305 297 295 300 302 300 302 305 307 308 313 314 314 280 313 314 297 302 309 317 300 286 294 277 291 310 320 318 325 312 304
310 309 311 313 313 312 313 313 314 313 164 312 317 321 319 321 314 305 302 310 305 320 323 309 317 314 308 316 320 297 311 303 301 317 303 327 321 319 317 279 292 312 348 355
367 351 346 339 335 331 332 335 338 345 349 344 347 343 334 335 331 328 331 343 339 348 330 330 341 342 348 340 341 337 341 331 321 332 353 356 347 337 355 344 350 349 356 343
375 376 375 377 378 380 380 379 387 394 408 414 424 432 437 470 468 480 499 506 500 475 451 434 448 437 444 481 428 432 416 389 380 370 362 358 359 368 357 355 348 364 334 334
372 372 368 367 375 376 372 370 370 371 371 367 363 366 373 376 376 375 386 389 398 411 430 460 538 516 459 457 457 453 448 438 431 405 405 380 377 367 358 358 350 369 343 346
352 352 356 361 457 428 291 372 365 359 363 369 366 357 355 355 360 355 365 365 369 388 393 395 396 397 393 402 430 431 433 427 417 416 404 395 377 370 369 360 357 348 335 340
459 455 451 447 440 434 434 436 437 436 437 446 452 455 455 455 454 354 352 377 381 380 383 384 380 378 372 374 388 402 407 415 409 414 404 394 390 378 368 368 360 353 338 339
423 415 410 406 402 404 407 409 409 408 408 410 419 418 422 421 420 416 417 408 379 372 366 362 358 360 393 406 402 402 394 401 389 399 393 292 391 384 376 370 366 357 356 348

GFSNGP_2pvu_pres_159.txt.gz
Presure
195 175 177 185 201 193 190 192 208 204 213 203 214 222 218 222 229 228 237 243 232 234 232 231 223 220 224 209 207 229 203 225 207 219 207 214 230 214 208 209 208 205 208 205
202 187 198 193 194 182 198 195 196 186 192 190 190 189 199 198 200 190 190 200 200 193 197 215 217 204 218 217 217 221 224 225 218 193 220 212 213 200 203 199 208 195 197 208
175 169 173 151 170 180 193 188 176 183 166 184 183 183 208 206 209 214 197 189 190 204 199 205 202 198 196 201 193 206 198 200 194 194 193 205 199 197 205 198 197 202 189 187
176 144 139 197 179 177 148 172 174 186 172 193 174 168 200 188 192 202 202 183 187 200 197 192 201 194 213 192 215 189 197 198 206 207 208 203 200 189 183 181 193 193 187 186
155 150 157 207 136 172 141 174 140 186 161 154 176 190 166 215 153 185 176 210 199 195 180 177 208 199 212 195 191 184 165 166 169 180 186 192 209 210 191 196 183 190 198 204
179 154 162 160 125 167 144 192 128 170 162 143 166 169 196 199 143 150 171 214 183 187 190 154 169 174 167 163 161 195 172 187 207 191 157 201 192 201 198 209 180 182 184 208
148 158 166 195 165 189 156 167 206 132 198 148 173 155 201 172 165 159 203 160 154 163 199 183 177 192 184 143 165 185 161 189 169 173 164 191 205 189 182 156 164 170 198 204
204 221 163 171 217 158 150 213 209 190 228 229 239 210 195 191 191 136 135 174 191 141 180 159 180 192 161 178 196 178 210 153 204 143 161 196 184 222 181 189 169 181 171 197
221 199 187 219 221 225 180 228 234 234 202 214 231 238 147 174 212 203 183 224 223 219 178 152 228 168 161 160 157 164 172 215 201 172 210 210 185 160 217 214 143 217 167 201
220 224 179 152 230 200 163 240 234 251 197 160 154 159 255 249 251 234 149 239 232 149 161 216 217 188 160 161 172 238 220 219 167 179 203 167 172 184 164 152 205 211 208 190
242 233 234 248 244 209 239 233 228 230 238 278 273 239 295 270 246 227 248 248 248 243 237 251 235 233 214 229 244 226 189 206 225 233 232 227 213 190 214 194 222 177 200 206
277 227 242 245 241 226 244 227 237 270 221 212 322 295 310 296 274 265 261 264 262 254 247 248 256 248 259 251 246 246 227 257 261 249 232 190 227 232 212 246 242 183 191 234
109 90 223 248 225 231 229 252 244 232 285 241 224 259 249 253 266 280 246 266 257 240 279 262 240 253 263 242 248 264 258 251 253 255 258 260 262 268 269 251 257 260 267 263
220 219 298 78 243 254 93 237 258 262 271 262 256 251 255 247 313 348 263 249 283 335 324 260 254 261 268 251 249 264 264 262 253 250 258 267 267 262 265 270 265 258 317 267
276 244 170 273 247 225 278 281 285 258 268 264 261 257 244 294 272 254 263 247 248 249 239 250 336 313 286 253 254 275 276 266 252 260 273 263 256 251 254 313 342 327 268 285
202 85 101 229 261 265 254 251 236 111 260 267 232 226 244 249 261 270 263 293 291 292 292 296 273 284 143 184 289 292 316 300 299 311 320 318 289 309 310 303 320 290 312 319
297 270 237 298 247 243 255 264 88 258 94 96 258 248 263 252 260 298 293 292 292 295 292 279 169 97 300 303 303 302 302 302 299 291 270 299 304 304 286 282 294 292 270 311
247 229 253 253 244 264 261 260 265 193 240 302 301 299 301 303 301 299 175 298 293 224 285 158 94 140 112 111 281 313 311 309 306 302 302 296 308 300 315 317 310 311 309 302
295 282 294 297 303 309 188 321 327 207 326 325 325 180 316 313 310 307 304 306 305 305 301 303 299 306 314 315 305 305 306 311 307 309 309 307 299 312 292 305 305 297 234 309
307 321 339 340 343 345 347 344 342 341 332 329 328 326 323 318 316 314 312 306 305 306 309 312 313 312 310 315 321 327 326 313 307 309 318 309 306 282 303 310 305 300 294 299
334 332 86 346 349 353 355 357 355 353 352 353 355 357 355 340 334 336 339 336 330 329 325 324 325 324 324 325 328 327 327 333 344 342 350 315 313 337 340 309 333 303 330 329
349 348 344 352 358 360 364 354 350 355 362 369 367 371 371 367 373 381 385 387 403 417 433 431 424 417 390 377 355 370 380 389 399 394 365 393 385 379 372 351 331 349 345 335
376 374 374 374 373 369 361 358 360 362 363 363 366 368 369 373 375 376 376 369 369 372 372 372 381 395 407 417 419 448 459 523 517 493 486 467 453 457 433 403 390 376 377 363
360 359 357 353 354 358 357 356 358 414 465 463 460 459 456 456 460 465 480 486 388 374 370 364 364 366 368 368 368 373 384 406 416 463 452 451 447 440 440 420 398 391 396 383
339 337 347 355 359 349 433 458 455 451 444 438 435 431 430 432 446 456 456 457 461 383 364 365 362 358 356 353 359 359 363 379 382 390 395 401 430 423 418 419 424 400 397 378
415 416 422 413 431 435 434 432 427 419 411 405 399 398 401 406 411 415 418 424 429 432 439 430 389 438 396 355 367 375 373 369 367 370 372 377 409 390 410 406 413 404 404 414
392 385 377 371 389 395 391 386 388 383 377 380 378 407 389 432 401 396 395 407 470 432 419 413 414 415 413 408 376 363 359 354 352 353 409 405 397 395 398 399 400 402 407 397